Location: *
(2.5500°S, 65.9667°W)
Time: 13:44:35
(UTC+00:00)

Cosmos 2173 Rocket - Pass Details

Date: 04 June 2022
Orbit: 945 x 1000 km, 83.0° (Epoch: 28 June)

Event Time Altitude Azimuth Distance (km) Brightness Sun altitude
Rises 08:25:03 0° 40° (NE) 3,671 8.0 -28.0°
Reaches altitude 10° 08:30:08 10° 76° (ENE) 2,743 7.3 -26.8°
Maximum altitude 08:31:30 11° 88° (E) 2,694 7.2 -26.5°
Drops below altitude 10° 08:32:52 10° 101° (E) 2,752 7.0 -26.2°
Sets 08:37:58 0° 136° (SE) 3,716 7.3 -25.0°
